Hourly Data Report for January 22, 2004

SHERBROOKE A
QUEBEC

45°26'00.000" N
71°41'00.000" W
241.40 m
7028124
71610
YSC

Download Data

Hourly Data (January 2004)
Hourly Data Report for January 22, 2004
TIME
LST
Temp Definition
°C
Dew Point Definition
°C
Rel Hum Definition
%
Precip. Amount Definition
mm

Wind Dir Definition
10's deg

Wind Spd Definition
km/h
Visibility Definition
km
Stn Press Definition
kPa
Hmdx Definition


Wind Chill Definition


Weather Definition


00:00 -19.8 -24.1 69   9 6 15.0 98.25   -25  
01:00 -19.4 -23.4 71     0 12.9 98.19      
02:00 -19.7 -23.8 70   8 6 15.0 98.08   -25  
03:00 -19.6 -23.6 70     0 15.0 98.00      
04:00 -20.6 -24.8 69   5 6 15.0 97.87   -26  
05:00 -19.9 -24.0 70   6 7 15.0 97.76   -26  
06:00 -19.5 -23.6 70   5 6 15.0 97.66   -24  
07:00 -18.8 -22.7 71   9 7 15.0 97.59   -24  
08:00 -18.3 -22.3 71   7 4 24.1 97.46   -22 Mainly Clear
09:00 -17.3 -21.2 72   7 6 24.1 97.36   -22 Mainly Clear
10:00 -13.1 -18.5 64   8 6 24.1 97.26   -17 Mostly Cloudy
11:00 -7.6 -19.2 39   18 15 24.1 97.14   -14 Mainly Clear
12:00 -6.7 -12.2 65   19 17 12.9 96.94   -13 Snow Showers
13:00 -6.7 -10.5 74   17 9 1.6 96.80   -11 Snow
14:00 -6.1 -9.6 76   19 11 4.0 96.75   -11 Snow
15:00 -5.2 -10.3 67   20 20 19.3 96.70   -12 Snow
16:00 -6.4 -11.3 68   23 17 24.1 96.81   -13 Snow Showers
17:00 -6.6 -13.7 57   25 22 24.1 96.86   -14 Mostly Cloudy
18:00 -7.7 -16.0 51   26 13 15.0 96.97   -13  
19:00 -9.1 -14.3 66   25 13 15.0 97.00   -15 Snow
20:00 -9.6 -12.7 78   23 4 1.0 96.98   -12 Snow
21:00 -10.7 -15.2 69   27 22 6.4 97.02   -19 Snow
22:00 -12.2 -17.7 64   27 32 12.9 97.06   -23  
23:00 -13.6 -19.1 63   26 24 15.0 97.13   -23  

Notes on Data Quality.

Legend

  • E = Estimated
  • M = Missing
  • NA = Not Available*
  • [empty] = Indicates an unobserved value
Date modified: